FW3274 Weather Reports


Display with metric or nautical units.
time (UTC)temp
F
wind
direction
speed
MPH
gust
MPH
rain 1hr
in
rain 24hr
in
rain mn
in
humidity
%
barometer
mb
20260510134533 69 67 0.0 0.0 0.00 0.00 0.00 58 1009.3
20260510133032 70 87 0.0 0.0 0.00 0.00 0.00 58 1009.5
20260510131531 69 87 0.0 0.0 0.00 0.00 0.00 59 1009.5
20260510130030 69 88 0.0 0.0 0.00 0.00 0.00 59 1009.7
20260510124529 69 90 0.0 0.0 0.00 0.00 0.00 58 1009.6
20260510123027 69 69 0.0 0.0 0.00 0.00 0.00 58 1009.8
20260510121526 69 71 0.0 0.0 0.00 0.00 0.00 57 1009.9
20260510120025 68 98 0.0 0.0 0.00 0.00 0.00 56 1009.9
20260510114525 68 98 0.0 0.0 0.00 0.00 0.00 55 1010.1
20260510113034 69 70 0.0 0.0 0.00 0.00 0.00 54 1010.0
20260510111523 69 67 0.0 0.0 0.00 0.00 0.00 54 1010.1
20260510110036 69 66 0.0 0.0 0.00 0.00 0.00 56 1010.3
20260510104520 69 67 0.0 0.0 0.00 0.00 0.00 57 1010.5
20260510103019 69 77 0.0 0.0 0.00 0.00 0.00 58 1010.5
20260510101518 69 78 0.0 0.0 0.00 0.00 0.00 57 1010.5
20260510100019 69 94 0.0 0.0 0.00 0.00 0.00 57 1010.5
20260510094530 69 80 0.0 0.0 0.00 0.00 0.00 57 1010.6
20260510093017 69 67 0.0 0.0 0.00 0.00 0.00 58 1010.8
20260510091516 69 80 0.0 0.0 0.00 0.00 0.00 55 1010.7
20260510090016 68 78 0.0 0.0 0.00 0.00 0.00 57 1010.7
20260510084516 69 84 0.0 0.0 0.00 0.00 0.00 57 1010.7
20260510083016 69 94 0.0 0.0 0.00 0.00 0.00 56 1010.7
20260510081519 69 96 0.0 0.0 0.00 0.00 0.00 57 1010.9
20260510080035 70 78 0.0 0.0 0.00 0.00 0.00 55 1010.9
20260510074511 68 53 0.0 4.0 0.00 0.00 0.00 58 1010.8
20260510073012 68 116 2.0 7.0 0.00 0.00 0.00 56 1010.8
20260510071509 68 96 0.0 0.0 0.00 0.00 0.00 59 1010.8
20260510070008 67 54 0.0 0.0 0.00 0.00 0.00 59 1010.7
20260510064510 68 92 0.0 0.0 0.00 0.00 0.00 57 1010.6
20260510063004 67 101 0.0 0.0 0.00 0.00 0.00 60 1010.6
20260510061503 66 97 0.0 0.0 0.00 0.00 0.00 60 1010.6
20260510060101 65 50 0.0 0.0 0.00 0.00 0.00 63 1010.4
20260510054555 63 84 0.0 0.0 0.00 0.00 0.00 67 1010.6
20260510053055 61 39 0.0 0.0 0.00 0.00 0.00 69 1010.7
20260510051603 60 78 0.0 0.0 0.00 0.00 0.00 71 1010.7
20260510050059 60 78 0.0 0.0 0.00 0.00 0.00 72 1010.7
20260510044548 59 78 0.0 0.0 0.00 0.00 0.00 73 1010.8
20260510043048 58 78 0.0 0.0 0.00 0.00 0.00 75 1011.0
20260510041545 57 78 0.0 0.0 0.00 0.00 0.00 76 1011.1
20260510040045 57 78 0.0 0.0 0.00 0.00 0.00 76 1011.2
20260510034543 58 78 0.0 0.0 0.00 0.00 0.00 76 1011.2
20260510033053 58 78 0.0 0.0 0.00 0.00 0.00 76 1011.1
20260510031545 57 78 0.0 0.0 0.00 0.00 0.00 77 1011.2
20260510030041 58 78 0.0 0.0 0.00 0.00 0.00 78 1011.4
20260510024537 58 78 0.0 0.0 0.00 0.00 0.00 78 1011.5
20260510023035 58 78 0.0 0.0 0.00 0.00 0.00 77 1011.5
20260510021611 59 78 0.0 0.0 0.00 0.00 0.00 77 1011.5
20260510020032 59 78 0.0 0.0 0.00 0.00 0.00 77 1011.5
20260510014545 60 78 0.0 0.0 0.00 0.00 0.00 77 1011.7
20260510013031 60 78 0.0 0.0 0.00 0.00 0.00 76 1011.9
20260510011528 60 78 0.0 0.0 0.00 0.00 0.00 76 1011.9
20260510010035 60 78 0.0 0.0 0.00 0.00 0.00 76 1012.0
20260510004525 60 82 0.0 0.0 0.00 0.00 0.00 75 1012.1
20260510003025 60 82 0.0 0.0 0.00 0.00 0.00 74 1012.2
20260510001523 60 82 0.0 0.0 0.00 0.00 0.00 75 1012.2
20260510000022 60 82 0.0 0.0 0.00 0.00 0.00 75 1012.3
20260509234522 60 82 0.0 0.0 0.00 0.00 0.00 75 1012.3
20260509233017 60 82 0.0 0.0 0.00 0.00 0.00 74 1012.4
20260509231515 61 82 0.0 0.0 0.00 0.00 0.00 74 1012.5
20260509230023 61 82 0.0 0.0 0.00 0.00 0.00 74 1012.6
20260509224512 61 82 0.0 0.0 0.00 0.00 0.00 74 1012.5
20260509223011 61 82 0.0 0.0 0.00 0.00 0.00 73 1012.6
20260509221509 62 82 0.0 0.0 0.00 0.00 0.00 73 1012.6
20260509220008 62 82 0.0 0.0 0.00 0.00 0.00 71 1012.5
20260509214507 62 82 0.0 0.0 0.00 0.00 0.00 70 1012.4
20260509213010 63 82 0.0 0.0 0.00 0.00 0.00 70 1012.4
20260509211506 63 82 0.0 0.0 0.00 0.00 0.00 69 1012.4
20260509210006 63 82 0.0 0.0 0.00 0.00 0.00 69 1012.4
20260509204506 64 82 0.0 0.0 0.00 0.00 0.00 67 1012.4
20260509203005 64 86 0.0 0.0 0.00 0.00 0.00 66 1012.3
20260509201511 65 86 0.0 0.0 0.00 0.00 0.00 64 1012.2
20260509200005 65 86 0.0 0.0 0.00 0.00 0.00 65 1012.2
20260509194506 65 86 0.0 0.0 0.00 0.00 0.00 64 1012.2
20260509193012 66 86 0.0 0.0 0.00 0.00 0.00 63 1012.0
20260509191504 66 86 0.0 0.0 0.00 0.00 0.00 62 1011.9
20260509184502 68 90 0.0 0.0 0.00 0.00 0.00 58 1011.6
20260509183002 69 90 0.0 0.0 0.00 0.00 0.00 57 1011.3
20260509181502 70 90 0.0 0.0 0.00 0.00 0.00 56 1011.4
20260509180002 70 89 0.0 0.0 0.00 0.00 0.00 54 1011.3
20260509174601 71 102 0.0 0.0 0.00 0.00 0.00 55 1011.4
20260509173108 72 196 0.0 0.0 0.00 0.00 0.00 54 1011.3
20260509171601 73 144 0.0 0.0 0.00 0.00 0.00 53 1011.1
20260509164559 75 213 0.0 0.0 0.00 0.00 0.00 51 1010.8
20260509163101 75 229 0.0 1.0 0.00 0.00 0.00 53 1010.8
20260509161604 76 190 0.0 1.0 0.00 0.00 0.00 52 1010.9
20260509160058 76 186 0.0 6.0 0.00 0.00 0.00 52 1011.0
20260509154555 76 229 1.0 6.0 0.00 0.00 0.00 52 1011.1
20260509153102 77 202 1.0 5.0 0.00 0.00 0.00 50 1011.1
20260509151554 78 211 0.0 0.0 0.00 0.00 0.00 49 1011.1
20260509150052 78 223 0.0 0.0 0.00 0.00 0.00 49 1011.2
20260509144552 77 217 0.0 4.0 0.00 0.00 0.00 46 1011.3
20260509143050 79 209 0.0 5.0 0.00 0.00 0.00 36 1011.4
20260509141548 78 189 0.0 8.0 0.00 0.00 0.00 38 1011.5